Location: Cherryland
(37.6794°N, 122.1033°W)
Time: 14:26:06
(UTC+00:00)

Cosmos 2322 Rocket - Pass Details

Date: 14 December 2025
Orbit: 831 x 850 km, 71.0° (Epoch: 17 January)

Event Time Altitude Azimuth Distance (km) Brightness Sun altitude
Exits shadow 13:45:58 19° 326° (NW) 1,899 3.6 -17.2°
Maximum altitude 13:49:57 60° 252° (WSW) 965 2.2 -16.5°
Drops below altitude 10° 13:55:29 10° 174° (S) 2,450 4.9 -15.4°
Sets 13:57:56 0° 170° (S) 3,378 5.7 -15.0°
